| time (UTC) | temp C | wind direction | speed KPH | gust KPH | rain 1hr cm | rain 24hr cm | rain mn cm | humidity % | barometer mb |
| 20260506205113 | 12 | 264 | 3.2 | 4.8 | 0.00 | 0.00 | 4.75 | 99 | 1010.9 |
| 20260506203932 | 12 | 246 | 3.2 | 4.8 | 0.00 | 0.00 | 4.75 | 99 | 1011.0 |
| 20260506202804 | 12 | 96 | 3.2 | 8.0 | 0.00 | 0.00 | 4.75 | 99 | 1010.9 |
| 20260506201637 | 12 | 246 | 6.4 | 6.4 | 0.00 | 0.00 | 4.75 | 99 | 1010.8 |
| 20260506200509 | 12 | 291 | 4.8 | 6.4 | 0.00 | 0.00 | 4.75 | 99 | 1010.8 |
| 20260506195253 | 12 | 291 | 3.2 | 3.2 | 0.00 | 0.00 | 4.75 | 99 | 1010.7 |
| 20260506194112 | 12 | 291 | 3.2 | 4.8 | 0.00 | 0.00 | 4.75 | 99 | 1010.4 |
| 20260506192944 | 12 | 291 | 4.8 | 4.8 | 0.00 | 0.00 | 4.75 | 99 | 1010.3 |
| 20260506191817 | 12 | 291 | 3.2 | 3.2 | 0.00 | 0.00 | 4.75 | 99 | 1010.3 |
| 20260506190649 | 12 | 291 | 3.2 | 3.2 | 0.05 | 0.00 | 4.75 | 99 | 1010.3 |
| 20260506185433 | 12 | 290 | 3.2 | 3.2 | 0.05 | 0.00 | 4.75 | 99 | 1010.3 |
| 20260506184252 | 13 | 290 | 3.2 | 3.2 | 0.05 | 0.00 | 4.75 | 99 | 1010.2 |
| 20260506183124 | 13 | 278 | 3.2 | 4.8 | 0.05 | 0.00 | 4.75 | 99 | 1010.1 |
| 20260506181957 | 13 | 278 | 3.2 | 3.2 | 0.05 | 0.00 | 4.75 | 99 | 1010.1 |
| 20260506180829 | 13 | 278 | 3.2 | 3.2 | 0.00 | 0.00 | 4.72 | 99 | 1010.1 |
| 20260506175613 | 13 | 278 | 0.0 | 3.2 | 0.00 | 0.00 | 4.72 | 99 | 1010.1 |
| 20260506174431 | 13 | 278 | 3.2 | 3.2 | 0.00 | 0.00 | 4.72 | 99 | 1009.9 |
| 20260506173304 | 13 | 96 | 0.0 | 3.2 | 0.05 | 0.00 | 4.72 | 99 | 1009.8 |
| 20260506172137 | 13 | 96 | 3.2 | 3.2 | 0.05 | 0.00 | 4.72 | 99 | 1009.7 |
| 20260506171009 | 12 | 96 | 3.2 | 3.2 | 0.13 | 0.00 | 4.72 | 99 | 1009.6 |
| 20260506165752 | 13 | 96 | 4.8 | 4.8 | 0.20 | 0.00 | 4.72 | 99 | 1009.6 |
| 20260506164612 | 12 | 102 | 3.2 | 3.2 | 0.41 | 0.00 | 4.72 | 99 | 1009.6 |
| 20260506163444 | 12 | 102 | 0.0 | 3.2 | 0.69 | 0.00 | 4.72 | 99 | 1009.6 |
| 20260506162317 | 12 | 102 | 0.0 | 3.2 | 0.91 | 0.00 | 4.72 | 99 | 1009.4 |
| 20260506161149 | 12 | 102 | 0.0 | 6.4 | 1.04 | 0.00 | 4.67 | 99 | 1009.7 |
| 20260506155932 | 12 | 102 | 3.2 | 6.4 | 0.99 | 0.00 | 4.60 | 99 | 1009.6 |
| 20260506154752 | 13 | 24 | 3.2 | 3.2 | 0.84 | 0.00 | 4.45 | 99 | 1009.6 |
| 20260506153624 | 13 | 24 | 3.2 | 3.2 | 0.48 | 0.00 | 4.09 | 99 | 1009.6 |
| 20260506152457 | 13 | 315 | 0.0 | 3.2 | 0.36 | 0.00 | 3.91 | 99 | 1009.7 |
| 20260506151329 | 13 | 234 | 0.0 | 3.2 | 0.36 | 0.00 | 3.81 | 99 | 1009.7 |
| 20260506150113 | 13 | 234 | 0.0 | 3.2 | 0.33 | 0.00 | 3.63 | 99 | 1009.7 |
| 20260506144931 | 13 | 234 | 0.0 | 4.8 | 0.33 | 0.00 | 3.63 | 99 | 1009.8 |
| 20260506143804 | 13 | 234 | 3.2 | 8.0 | 0.33 | 0.00 | 3.63 | 99 | 1009.9 |
| 20260506142637 | 13 | 174 | 6.4 | 6.4 | 0.23 | 0.00 | 3.56 | 99 | 1010.0 |
| 20260506141509 | 13 | 90 | 4.8 | 8.0 | 0.23 | 0.00 | 3.48 | 99 | 1010.0 |
| 20260506140252 | 13 | 115 | 3.2 | 6.4 | 0.20 | 0.00 | 3.40 | 98 | 1010.2 |
| 20260506135112 | 13 | 54 | 0.0 | 4.8 | 0.20 | 0.00 | 3.33 | 98 | 1010.1 |
| 20260506133944 | 13 | 12 | 3.2 | 6.4 | 0.33 | 0.00 | 3.33 | 98 | 1010.2 |
| 20260506132817 | 13 | 303 | 3.2 | 6.4 | 0.43 | 0.00 | 3.33 | 97 | 1010.3 |
| 20260506131650 | 13 | 246 | 3.2 | 3.2 | 0.76 | 0.00 | 3.33 | 99 | 1010.5 |
| 20260506130433 | 13 | 210 | 3.2 | 6.4 | 0.97 | 0.00 | 3.33 | 99 | 1010.7 |
| 20260506125257 | 13 | 114 | 3.2 | 6.4 | 0.97 | 0.00 | 3.20 | 99 | 1010.7 |
| 20260506124112 | 13 | 318 | 3.2 | 6.4 | 0.97 | 0.00 | 3.12 | 99 | 1010.6 |
| 20260506122945 | 12 | 66 | 3.2 | 3.2 | 0.91 | 0.00 | 3.00 | 99 | 1010.5 |
| 20260506121817 | 12 | 78 | 0.0 | 3.2 | 0.89 | 0.00 | 2.59 | 99 | 1010.5 |
| 20260506120600 | 12 | 84 | 3.2 | 4.8 | 1.17 | 0.00 | 2.44 | 99 | 1010.5 |
| 20260506115419 | 12 | 72 | 3.2 | 3.2 | 1.27 | 0.00 | 2.29 | 99 | 1010.6 |
| 20260506114251 | 12 | 72 | 0.0 | 4.8 | 1.32 | 0.00 | 2.24 | 99 | 1010.6 |
| 20260506113124 | 12 | 48 | 3.2 | 8.0 | 1.32 | 0.00 | 2.21 | 99 | 1010.5 |
| 20260506111957 | 12 | 24 | 3.2 | 8.0 | 0.97 | 0.00 | 1.83 | 98 | 1010.4 |
| 20260506110740 | 13 | 270 | 4.8 | 9.7 | 0.56 | 0.00 | 1.40 | 98 | 1010.6 |
| 20260506105559 | 13 | 318 | 3.2 | 11.3 | 0.20 | 0.00 | 1.04 | 97 | 1010.7 |
| 20260506104431 | 13 | 156 | 9.7 | 11.3 | 0.13 | 0.00 | 0.91 | 99 | 1010.8 |
| 20260506103304 | 13 | 132 | 8.0 | 12.9 | 0.13 | 0.00 | 0.89 | 99 | 1010.7 |
| 20260506102136 | 14 | 132 | 6.4 | 11.3 | 0.15 | 0.00 | 0.89 | 99 | 1010.6 |
| 20260506101008 | 13 | 108 | 6.4 | 9.7 | 0.13 | 0.00 | 0.84 | 99 | 1010.8 |
| 20260506095841 | 13 | 78 | 8.0 | 11.3 | 0.13 | 0.00 | 0.84 | 99 | 1010.9 |
| 20260506094727 | 13 | 126 | 4.8 | 12.9 | 0.13 | 0.00 | 0.79 | 99 | 1011.0 |
| 20260506093546 | 13 | 126 | 6.4 | 14.5 | 0.08 | 0.00 | 0.76 | 99 | 1011.0 |
| 20260506092418 | 13 | 126 | 8.0 | 11.3 | 0.13 | 0.00 | 0.71 | 99 | 1011.1 |
| 20260506091250 | 13 | 108 | 3.2 | 9.7 | 0.36 | 0.00 | 0.71 | 99 | 1011.0 |
| 20260506090123 | 13 | 132 | 8.0 | 8.0 | 0.64 | 0.00 | 0.71 | 99 | 1010.9 |
| 20260506084906 | 13 | 90 | 3.2 | 6.4 | 0.69 | 0.00 | 0.69 | 99 | 1010.7 |
| 20260506083725 | 13 | 90 | 0.0 | 3.2 | 0.69 | 0.00 | 0.69 | 99 | 1010.8 |
| 20260506082545 | 13 | 90 | 0.0 | 11.3 | 0.61 | 0.00 | 0.61 | 99 | 1010.7 |
| 20260506081418 | 13 | 348 | 3.2 | 9.7 | 0.43 | 0.00 | 0.43 | 99 | 1010.6 |
| 20260506080258 | 13 | 342 | 3.2 | 4.8 | 0.13 | 0.00 | 0.13 | 99 | 1010.7 |
| 20260506072725 | 12 | 306 | 6.4 | 6.4 | 0.05 | 0.00 | 0.05 | 99 | 1010.8 |
| 20260506071558 | 12 | 306 | 0.0 | 0.0 | 0.05 | 0.00 | 0.05 | 99 | 1010.8 |
| 20260506070431 | 12 | 306 | 3.2 | 4.8 | 0.00 | 0.00 | 0.00 | 99 | 1010.8 |
| 20260506061737 | 13 | 138 | 0.0 | 3.2 | 0.00 | 0.00 | 0.00 | 96 | 1011.2 |
| 20260506060610 | 12 | 126 | 4.8 | 4.8 | 0.00 | 0.00 | 0.00 | 97 | 1011.0 |
| 20260506050725 | 12 | 330 | 3.2 | 11.3 | 0.00 | 0.00 | 0.00 | 93 | 1010.9 |
| 20260506044327 | 12 | 300 | 4.8 | 11.3 | 0.00 | 0.00 | 0.00 | 93 | 1010.9 |
| 20260506043158 | 11 | 310 | 4.8 | 4.8 | 0.00 | 0.00 | 0.00 | 99 | 1010.9 |
| 20260506042031 | 11 | 306 | 3.2 | 4.8 | 0.00 | 0.00 | 0.00 | 99 | 1011.2 |
| 20260506040904 | 11 | 306 | 4.8 | 4.8 | 0.00 | 0.00 | 0.00 | 99 | 1011.3 |
| 20260506035647 | 11 | 306 | 0.0 | 3.2 | 0.00 | 0.00 | 0.00 | 99 | 1011.4 |
| 20260506034506 | 11 | 306 | 4.8 | 6.4 | 0.00 | 0.00 | 0.00 | 99 | 1011.4 |
| 20260506033338 | 11 | 294 | 3.2 | 6.4 | 0.00 | 0.00 | 0.00 | 99 | 1011.5 |
| 20260506032209 | 11 | 306 | 6.4 | 8.0 | 0.00 | 0.00 | 0.00 | 99 | 1011.5 |
| 20260506031042 | 11 | 297 | 3.2 | 4.8 | 0.00 | 0.00 | 0.00 | 99 | 1011.4 |
| 20260506025826 | 11 | 297 | 3.2 | 8.0 | 0.00 | 0.00 | 0.00 | 99 | 1011.6 |
| 20260506024645 | 11 | 300 | 6.4 | 6.4 | 0.00 | 0.00 | 0.00 | 99 | 1011.7 |
| 20260506023517 | 11 | 300 | 0.0 | 8.0 | 0.00 | 0.00 | 0.00 | 99 | 1011.9 |
| 20260506022350 | 11 | 302 | 6.4 | 6.4 | 0.00 | 0.00 | 0.00 | 99 | 1011.9 |
| 20260506021222 | 11 | 300 | 3.2 | 6.4 | 0.00 | 0.00 | 0.00 | 99 | 1011.9 |
| 20260506020006 | 11 | 309 | 8.0 | 8.0 | 0.00 | 0.00 | 0.00 | 99 | 1011.8 |
| 20260506014824 | 11 | 318 | 3.2 | 6.4 | 0.00 | 0.00 | 0.00 | 99 | 1011.9 |
| 20260506013656 | 11 | 306 | 6.4 | 6.4 | 0.00 | 0.00 | 0.00 | 99 | 1012.1 |
| 20260506012529 | 11 | 294 | 4.8 | 6.4 | 0.00 | 0.00 | 0.00 | 99 | 1011.9 |
| 20260506011402 | 11 | 306 | 0.0 | 4.8 | 0.00 | 0.00 | 0.00 | 99 | 1011.9 |
| 20260506010145 | 11 | 306 | 3.2 | 3.2 | 0.00 | 0.00 | 0.00 | 99 | 1011.8 |
| 20260506005005 | 11 | 306 | 0.0 | 6.4 | 0.00 | 0.00 | 0.00 | 99 | 1011.8 |
| 20260506003837 | 11 | 313 | 4.8 | 6.4 | 0.00 | 0.00 | 0.00 | 99 | 1011.8 |
| 20260506002709 | 11 | 300 | 4.8 | 4.8 | 0.00 | 0.00 | 0.00 | 99 | 1012.1 |
| 20260506001542 | 11 | 300 | 3.2 | 8.0 | 0.00 | 0.00 | 0.00 | 98 | 1012.0 |
| 20260506000325 | 12 | 198 | 3.2 | 3.2 | 0.00 | 0.00 | 0.00 | 99 | 1012.2 |
| 20260505235144 | 11 | 198 | 0.0 | 3.2 | 0.00 | 0.00 | 0.00 | 99 | 1012.4 |
| 20260505234016 | 11 | 186 | 3.2 | 3.2 | 0.00 | 0.00 | 0.00 | 99 | 1012.5 |
| 20260505232849 | 11 | 186 | 0.0 | 0.0 | 0.00 | 0.00 | 0.00 | 99 | 1012.5 |
| 20260505231721 | 11 | 186 | 0.0 | 3.2 | 0.00 | 0.00 | 0.00 | 99 | 1012.5 |
| 20260505230505 | 11 | 186 | 3.2 | 3.2 | 0.00 | 0.00 | 0.00 | 99 | 1012.6 |
| 20260505225324 | 11 | 162 | 3.2 | 3.2 | 0.05 | 0.00 | 1.60 | 99 | 1012.7 |
| 20260505224157 | 11 | 126 | 3.2 | 3.2 | 0.05 | 0.00 | 1.60 | 99 | 1012.6 |
| 20260505223029 | 11 | 126 | 0.0 | 3.2 | 0.05 | 0.00 | 1.60 | 99 | 1012.7 |
| 20260505221902 | 11 | 126 | 3.2 | 3.2 | 0.05 | 0.00 | 1.60 | 99 | 1012.7 |
| 20260505220645 | 11 | 126 | 0.0 | 0.0 | 0.13 | 0.00 | 1.60 | 99 | 1012.7 |
| 20260505215504 | 11 | 126 | 0.0 | 3.2 | 0.20 | 0.00 | 1.60 | 99 | 1012.9 |
| 20260505214336 | 11 | 126 | 3.2 | 3.2 | 0.36 | 0.00 | 1.60 | 99 | 1012.9 |
| 20260505213209 | 11 | 126 | 0.0 | 3.2 | 0.41 | 0.00 | 1.60 | 99 | 1013.1 |
| 20260505212041 | 11 | 126 | 0.0 | 0.0 | 0.48 | 0.00 | 1.60 | 99 | 1013.2 |
| 20260505210825 | 11 | 126 | 0.0 | 0.0 | 0.51 | 0.00 | 1.55 | 99 | 1013.4 |
| 20260505205644 | 11 | 126 | 0.0 | 3.2 | 0.48 | 0.00 | 1.45 | 99 | 1013.4 |